Regional Weather Roundup
Issued by NWS Green Bay, WI

Home | Current Version | Previous Version | Graphics & Text | Print | Product List | Glossary Off
Versions: 1 2 3 4 5 6 7 8 9 10 11 12 13 14 15 16 17 18 19 20 21 22 23 24 25 26 27 28 29 30 31 32 33 34 35 36 37 38 39 40 41 42 43 44 45 46 47 48 49 50

000
ASUS43 KGRB 241400
RWRGRB

NORTH-CENTRAL AND NORTHEAST WISCONSIN REGIONAL WEATHER ROUNDUP
NATIONAL WEATHER SERVICE GREEN BAY WI
900 AM CDT FRI MAR 24 2017

WIZ005-009-010>012-018-019-241500-
NORTH CENTRAL WISCONSIN

CITY           SKY/WX    TMP DP  RH WIND       PRES   REMARKS
IRONWOOD       CLOUDY    34  33  96 NW7       29.95R FOG
MANITOWISH WTR NOT AVBL
ARBOR VITAE    NOT AVBL
EAGLE RIVER    NOT AVBL
LAND O LAKES   NOT AVBL
RHINELANDER    LGT RAIN  34  34 100 CALM      29.90S FOG
PHILLIPS       NOT AVBL
ANTIGO         NOT AVBL
TOMAHAWK       NOT AVBL
MERRILL        NOT AVBL
$$

WIZ013-073-241500-
NORTHEAST WISCONSIN

CITY           SKY/WX    TMP DP  RH WIND       PRES   REMARKS
IRON MOUNTAIN  FRZ RAIN  33  30  88 S7        29.92R VSB 1
MARINETTE        N/A    N/A N/A N/A MISG        N/A
$$

WIZ017-030-035>037-045-241500-
CENTRAL WISCONSIN

CITY           SKY/WX    TMP DP  RH WIND       PRES   REMARKS
MEDFORD        NOT AVBL
WAUSAU         LGT RAIN  35  35 100 CALM      29.89R FOG
MOSINEE        NOT AVBL
MARSHFIELD     CLOUDY    37  36  96 N7        29.88R FOG
WISC RAPIDS    CLOUDY    40  39  97 NE6       29.90R FOG
STEVENS POINT  NOT AVBL
WAUPACA        NOT AVBL
SHAWANO        NOT AVBL
CLINTONVILLE   NOT AVBL
WAUTOMA        CLOUDY    39  37  92 NE5       29.89S FOG
$$

WIZ038-039-048-051-241500-
FOX VALLEY

CITY           SKY/WX    TMP DP  RH WIND       PRES   REMARKS
NWS GREEN BAY  CLOUDY    40  37  89 NE3       29.92R FOG
APPLETON       CLOUDY    37  36  93 N7        29.89R FOG
OSHKOSH        CLOUDY    41  36  82 CALM      29.90R
FOND DU LAC    MOSUNNY   44  37  76 E3        29.89R
$$

WIZ022-050-052-241500-
EAST CENTRAL WISCONSIN

CITY           SKY/WX    TMP DP  RH WIND       PRES   REMARKS
EPHRAIM        NOT AVBL
WASHINGTON ISL NOT AVBL
STURGEON BAY   CLOUDY    37  36  96 W3        29.93R FOG
MANITOWOC      NOT AVBL
SHEBOYGAN      CLOUDY    41  37  86 CALM      29.89S FOG
$$

LMZ563-521-522-541>543-241500-
LAKESHORE

STATION/POSITION TIME  TEMP    WIND        PRES    VSBY  WAVE
                       AIR SEA DIR/SP/G                  HT/PER
                 (UTC) (F)     (DEG/KT/KT) (MB)    (MI)  (FT/S)
SHEBOYGAN LKSHOR 1300   38     180/  4/  4 1012.6F
KEWAUNEE LKSHORE 1330   38      CALM  /  3 1012.0F
NORTHPORT PIER   1340   35     310/  2/  5 1012.5R
SISTER BAY LKSHO 1251   36        CALM       N/A
CHAMBERS ISLAND  1340   34     260/  3/  4 1013.5R
MENOMINEE LKSHOR 1330   35     320/  4/  5 1012.4R
$$




USA.gov is the U.S. government's official web portal to all federal, state and local government web resources and services.